NOZ1821 LPFR-ENGM

Flight info

Callsign NOZ1821
Flight time N/A
Altitude 36000
Route ELVAR DCT BARDI N873 DELOG DCT DIDIG DCT USODA DCT ERCUT DCT DITAL UN873 BAZOS DCT BELDI DCT VEKIN/N0448F360 DCT ADUTO/N0446F350 DCT VICOT DCT AMADA DCT PIPEX DCT RIPAM
Aircraft B738/M-SDE2E3FGHIRWXY/LB1

Departure

Time N/A
Airport Faro - Gago Coutinho International Airport (LPFR)

Arrival

Time 2026-05-04 14:50
Airport Oslo-Gardermoen International Airport (ENGM)
Time Latitude Longitude Altitude Speed Heading
2026-05-04 13:38 54.02090 5.66826 36024 ft 467 kts 19°
2026-05-04 13:38 54.05109 5.68876 36025 ft 466 kts 19°
2026-05-04 13:39 54.11094 5.72950 36043 ft 465 kts 19°
2026-05-04 13:39 54.17101 5.77051 36033 ft 464 kts 20°
2026-05-04 13:40 54.23088 5.81151 36029 ft 462 kts 20°
2026-05-04 13:40 54.29050 5.85247 36027 ft 461 kts 20°
2026-05-04 13:41 54.34998 5.89347 36033 ft 460 kts 19°
2026-05-04 13:41 54.40935 5.93450 36039 ft 460 kts 20°
2026-05-04 13:42 54.49808 5.99607 36036 ft 460 kts 20°
2026-05-04 13:42 54.55748 6.03746 36037 ft 460 kts 20°
2026-05-04 13:43 54.61689 6.07898 36059 ft 461 kts 20°
2026-05-04 13:43 54.67632 6.12066 36039 ft 461 kts 20°
2026-05-04 13:44 54.73548 6.16227 36036 ft 461 kts 20°
2026-05-04 13:44 54.79487 6.20418 36038 ft 460 kts 20°
2026-05-04 13:45 54.85413 6.24614 36045 ft 460 kts 20°
2026-05-04 13:45 54.91338 6.28822 36031 ft 459 kts 20°
2026-05-04 13:46 54.97219 6.33011 36031 ft 458 kts 20°
2026-05-04 13:46 55.03130 6.37131 36030 ft 456 kts 18°
2026-05-04 13:47 55.09109 6.40869 36033 ft 455 kts 17°
2026-05-04 13:47 55.15087 6.44544 36036 ft 454 kts 18°
2026-05-04 13:48 55.21034 6.48262 36029 ft 454 kts 18°
2026-05-04 13:48 55.26971 6.52022 36029 ft 453 kts 18°
2026-05-04 13:49 55.32857 6.55773 36029 ft 452 kts 18°
2026-05-04 13:49 55.38771 6.59556 36037 ft 452 kts 18°
2026-05-04 13:50 55.44680 6.63346 36024 ft 452 kts 18°
2026-05-04 13:50 55.50588 6.67146 36022 ft 451 kts 18°
2026-05-04 13:51 55.56457 6.70933 36020 ft 452 kts 18°
2026-05-04 13:51 55.62367 6.74759 36031 ft 452 kts 18°
2026-05-04 13:52 55.70244 6.79876 36022 ft 453 kts 18°
2026-05-04 13:53 55.76170 6.83741 36022 ft 454 kts 18°
2026-05-04 13:53 55.82110 6.87628 36014 ft 455 kts 18°
2026-05-04 13:54 55.91032 6.93491 36011 ft 456 kts 18°
2026-05-04 13:55 55.99961 6.99386 36013 ft 456 kts 18°
2026-05-04 13:55 56.08855 7.05287 36009 ft 456 kts 18°
2026-05-04 13:56 56.14809 7.09255 36017 ft 456 kts 17°
2026-05-04 13:57 56.23743 7.15232 36002 ft 456 kts 18°
2026-05-04 13:58 56.35616 7.23222 35998 ft 456 kts 18°
2026-05-04 13:58 56.44532 7.29257 35997 ft 457 kts 17°
2026-05-04 13:59 56.50485 7.33303 36001 ft 456 kts 17°
2026-05-04 14:00 56.59411 7.39396 35996 ft 457 kts 17°
2026-05-04 14:00 56.68332 7.45516 35993 ft 457 kts 17°
2026-05-04 14:01 56.74283 7.49616 35982 ft 457 kts 17°
2026-05-04 14:02 56.83214 7.55795 35976 ft 457 kts 17°
2026-05-04 14:02 56.89131 7.59907 35999 ft 457 kts 17°
2026-05-04 14:03 56.95083 7.64057 35974 ft 458 kts 17°
2026-05-04 14:03 57.01051 7.68231 35967 ft 458 kts 17°
2026-05-04 14:04 57.09992 7.74513 35962 ft 458 kts 17°
2026-05-04 14:04 57.15915 7.78693 35976 ft 459 kts 16°
2026-05-04 14:05 57.24859 7.85031 35955 ft 460 kts 16°
2026-05-04 14:06 57.30832 7.89282 35945 ft 460 kts 16°
2026-05-04 14:06 57.36804 7.93548 35939 ft 460 kts 16°
2026-05-04 14:07 57.42779 7.97831 35944 ft 461 kts 16°
2026-05-04 14:07 57.48763 8.02135 35939 ft 461 kts 16°
2026-05-04 14:08 57.54751 8.06457 35931 ft 462 kts 16°
2026-05-04 14:08 57.60747 8.10800 35924 ft 462 kts 16°
2026-05-04 14:09 57.69730 8.17337 35921 ft 464 kts 15°
2026-05-04 14:10 57.78780 8.23956 35234 ft 462 kts 15°
2026-05-04 14:10 57.81760 8.26149 34906 ft 457 kts 15°
2026-05-04 14:10 57.84699 8.28318 34588 ft 450 kts 15°
2026-05-04 14:10 57.87561 8.30430 34264 ft 446 kts 15°
2026-05-04 14:11 57.90440 8.32555 33959 ft 442 kts 15°
2026-05-04 14:11 57.96128 8.36763 33305 ft 436 kts 14°
2026-05-04 14:11 57.98939 8.38846 32938 ft 433 kts 14°
2026-05-04 14:12 58.01733 8.40921 32590 ft 430 kts 14°
2026-05-04 14:12 58.04516 8.42991 32254 ft 428 kts 14°
2026-05-04 14:12 58.10029 8.47103 31575 ft 423 kts 14°
2026-05-04 14:13 58.12767 8.49151 31249 ft 421 kts 14°
2026-05-04 14:13 58.15452 8.51162 30922 ft 419 kts 14°
2026-05-04 14:13 58.18191 8.53218 30594 ft 416 kts 14°
2026-05-04 14:13 58.20840 8.55210 30310 ft 414 kts 13°
2026-05-04 14:14 58.23510 8.57221 29995 ft 412 kts 13°
2026-05-04 14:14 58.28804 8.61217 29262 ft 406 kts 13°
2026-05-04 14:14 58.31420 8.63197 28884 ft 404 kts 13°
2026-05-04 14:15 58.36608 8.67131 28157 ft 399 kts 13°
2026-05-04 14:15 58.41742 8.71035 27453 ft 395 kts 13°
2026-05-04 14:16 58.46825 8.74914 26770 ft 391 kts 13°
2026-05-04 14:16 58.49349 8.76844 26447 ft 390 kts 13°
2026-05-04 14:17 58.54336 8.80666 25770 ft 387 kts 13°
2026-05-04 14:17 58.56826 8.82579 25471 ft 384 kts 13°
2026-05-04 14:17 58.61767 8.86386 24878 ft 380 kts 13°
2026-05-04 14:18 58.64222 8.88282 24590 ft 379 kts 13°
2026-05-04 14:18 58.69090 8.92047 24016 ft 375 kts 13°
2026-05-04 14:19 58.73919 8.95794 23483 ft 373 kts 12°
2026-05-04 14:19 58.76325 8.97669 23164 ft 371 kts 12°
2026-05-04 14:19 58.78694 8.99513 22841 ft 371 kts 12°
2026-05-04 14:19 58.81083 9.01372 22520 ft 370 kts 12°
2026-05-04 14:20 58.83468 9.03240 22191 ft 370 kts 13°
2026-05-04 14:20 58.85778 9.05598 21855 ft 382 kts 25°
2026-05-04 14:20 58.87920 9.08686 21555 ft 385 kts 28°
2026-05-04 14:21 58.92173 9.14922 20930 ft 382 kts 28°
2026-05-04 14:21 58.94289 9.18004 20713 ft 379 kts 27°
2026-05-04 14:21 58.96388 9.21067 20492 ft 376 kts 28°
2026-05-04 14:21 58.98470 9.24112 20292 ft 373 kts 28°
2026-05-04 14:22 59.00548 9.27148 20143 ft 377 kts 27°
2026-05-04 14:22 59.02660 9.30230 19937 ft 381 kts 27°
2026-05-04 14:22 59.04754 9.33293 19744 ft 381 kts 28°
2026-05-04 14:22 59.06859 9.36399 19532 ft 379 kts 28°
2026-05-04 14:23 59.11037 9.42573 19144 ft 376 kts 28°
2026-05-04 14:23 59.13115 9.45655 18951 ft 375 kts 28°
2026-05-04 14:23 59.15193 9.48740 18722 ft 374 kts 28°
2026-05-04 14:24 59.17250 9.51822 18547 ft 372 kts 28°
2026-05-04 14:24 59.19310 9.54877 18361 ft 372 kts 28°
2026-05-04 14:24 59.21374 9.57935 18165 ft 372 kts 28°
2026-05-04 14:24 59.23436 9.60998 17973 ft 372 kts 28°
2026-05-04 14:25 59.25492 9.64071 17795 ft 373 kts 28°
2026-05-04 14:25 59.29617 9.70247 17367 ft 373 kts 28°
2026-05-04 14:25 59.31683 9.73342 17142 ft 373 kts 27°
2026-05-04 14:26 59.33850 9.75783 16912 ft 354 kts
2026-05-04 14:26 59.36182 9.77105 16727 ft 347 kts
2026-05-04 14:26 59.38512 9.78330 16503 ft 346 kts
2026-05-04 14:26 59.40834 9.79556 16287 ft 344 kts
2026-05-04 14:27 59.43135 9.80793 16068 ft 342 kts
2026-05-04 14:27 59.45423 9.82044 15839 ft 339 kts
2026-05-04 14:27 59.47677 9.83294 15634 ft 334 kts
2026-05-04 14:27 59.49896 9.84531 15410 ft 329 kts
2026-05-04 14:28 59.52077 9.85749 15276 ft 324 kts
2026-05-04 14:28 59.54243 9.86954 15085 ft 323 kts
2026-05-04 14:28 59.56403 9.88159 14876 ft 322 kts
2026-05-04 14:28 59.58553 9.89365 14653 ft 320 kts
2026-05-04 14:29 59.62814 9.91760 14245 ft 316 kts
2026-05-04 14:29 59.66971 9.94069 13865 ft 311 kts
2026-05-04 14:30 59.68375 9.94858 13746 ft 310 kts
2026-05-04 14:30 59.71130 9.96405 13465 ft 309 kts
2026-05-04 14:30 59.75245 9.98719 13011 ft 305 kts
2026-05-04 14:31 59.77284 9.99864 12801 ft 304 kts
2026-05-04 14:31 59.81342 10.02145 12396 ft 302 kts
2026-05-04 14:32 59.85369 10.04414 11972 ft 299 kts
2026-05-04 14:32 59.87374 10.05537 11757 ft 298 kts
2026-05-04 14:32 59.89366 10.06666 11551 ft 297 kts
2026-05-04 14:32 59.91353 10.07793 11336 ft 296 kts
2026-05-04 14:33 59.93338 10.08919 11128 ft 296 kts
2026-05-04 14:33 59.95295 10.09988 10940 ft 293 kts
2026-05-04 14:33 59.97276 10.11041 10707 ft 296 kts 11°
2026-05-04 14:33 59.99247 10.12252 10513 ft 295 kts 11°
2026-05-04 14:34 60.01212 10.13417 10304 ft 294 kts 10°
2026-05-04 14:34 60.03151 10.14544 10097 ft 293 kts 10°
2026-05-04 14:34 60.05108 10.15676 9910 ft 293 kts 10°
2026-05-04 14:34 60.07062 10.16805 9742 ft 292 kts 10°
2026-05-04 14:35 60.09015 10.17932 9572 ft 292 kts 10°
2026-05-04 14:35 60.10972 10.19063 9363 ft 292 kts 10°
2026-05-04 14:35 60.12920 10.20192 9147 ft 292 kts
2026-05-04 14:35 60.14865 10.21320 8943 ft 288 kts 10°
2026-05-04 14:36 60.16774 10.22429 8731 ft 283 kts 10°
2026-05-04 14:36 60.18655 10.23526 8516 ft 278 kts 10°
2026-05-04 14:36 60.20506 10.24603 8320 ft 276 kts
2026-05-04 14:36 60.22347 10.25669 8125 ft 275 kts 10°
2026-05-04 14:37 60.24186 10.26733 7930 ft 274 kts 10°
2026-05-04 14:37 60.26017 10.27798 7738 ft 274 kts 10°
2026-05-04 14:37 60.27851 10.28868 7556 ft 274 kts 10°
2026-05-04 14:37 60.29681 10.29937 7392 ft 274 kts 10°
2026-05-04 14:38 60.31503 10.31097 7221 ft 277 kts 19°
2026-05-04 14:38 60.33001 10.33582 7027 ft 286 kts 52°
2026-05-04 14:38 60.33868 10.37121 6920 ft 285 kts 67°
2026-05-04 14:38 60.34559 10.40874 6799 ft 287 kts 69°
2026-05-04 14:39 60.35231 10.44699 6648 ft 289 kts 69°
2026-05-04 14:39 60.35902 10.48519 6509 ft 288 kts 69°
2026-05-04 14:39 60.36573 10.52309 6377 ft 285 kts 69°
2026-05-04 14:40 60.37911 10.59799 6125 ft 283 kts 69°
2026-05-04 14:40 60.38588 10.63547 5980 ft 285 kts 69°
2026-05-04 14:40 60.39266 10.67323 5862 ft 285 kts 69°
2026-05-04 14:40 60.39716 10.69828 5753 ft 285 kts 69°
2026-05-04 14:41 60.40394 10.73588 5641 ft 284 kts 69°
2026-05-04 14:41 60.41072 10.77359 5507 ft 285 kts 69°
2026-05-04 14:41 60.42622 10.86041 5185 ft 280 kts 68°
2026-05-04 14:42 60.43944 10.93408 4924 ft 278 kts 69°
2026-05-04 14:42 60.44379 10.95845 4822 ft 278 kts 69°
2026-05-04 14:42 60.45028 10.99516 4710 ft 273 kts 69°
2026-05-04 14:43 60.45668 11.03086 4538 ft 265 kts 69°
2026-05-04 14:43 60.46120 11.06636 4415 ft 260 kts 90°
2026-05-04 14:43 60.45735 11.10157 4310 ft 254 kts 119°
2026-05-04 14:43 60.44759 11.13052 4227 ft 246 kts 134°
2026-05-04 14:44 60.43634 11.15687 4097 ft 251 kts 136°
2026-05-04 14:44 60.42477 11.18351 3998 ft 251 kts 135°
2026-05-04 14:44 60.41345 11.20995 3971 ft 246 kts 134°
2026-05-04 14:44 60.40111 11.23161 3973 ft 226 kts 163°
2026-05-04 14:45 60.38665 11.23361 4011 ft 202 kts 205°
2026-05-04 14:45 60.37413 11.22322 4009 ft 191 kts 205°
2026-05-04 14:45 60.36186 11.21546 3969 ft 180 kts 202°
2026-05-04 14:45 60.35015 11.20862 3779 ft 171 kts 202°
2026-05-04 14:46 60.33886 11.20214 3588 ft 170 kts 203°
2026-05-04 14:46 60.32747 11.19551 3344 ft 170 kts 203°
2026-05-04 14:46 60.31617 11.18895 3107 ft 168 kts 203°
2026-05-04 14:46 60.30507 11.18256 2896 ft 162 kts 203°
2026-05-04 14:47 60.29460 11.17651 2657 ft 150 kts 203°
2026-05-04 14:47 60.28493 11.17094 2464 ft 142 kts 204°
2026-05-04 14:47 60.27529 11.16532 2263 ft 147 kts 203°
2026-05-04 14:47 60.26557 11.15972 2059 ft 145 kts 203°
2026-05-04 14:48 60.25594 11.15416 1868 ft 143 kts 204°
2026-05-04 14:48 60.24625 11.14888 1669 ft 143 kts 204°
2026-05-04 14:48 60.23687 11.14290 1468 ft 141 kts 206°
2026-05-04 14:48 60.22739 11.13750 1280 ft 141 kts 204°
2026-05-04 14:49 60.21803 11.13201 1133 ft 143 kts 204°
2026-05-04 14:49 60.20838 11.12678 893 ft 143 kts 204°
2026-05-04 14:49 60.19890 11.12124 705 ft 141 kts 202°
2026-05-04 14:49 60.19023 11.11608 683 ft 113 kts 195°
2026-05-04 14:50 60.18409 11.11258 682 ft 70 kts 196°
2026-05-04 14:50 60.18094 11.11017 681 ft 20 kts 217°
2026-05-04 14:50 60.18037 11.10842 679 ft 12 kts 270°
2026-05-04 14:50 60.18075 11.10689 676 ft 13 kts 334°
2026-05-04 14:51 60.18158 11.10722 676 ft 13 kts 17°
2026-05-04 14:51 60.18244 11.10771 677 ft 13 kts 15°
2026-05-04 14:51 60.18338 11.10825 679 ft 15 kts 16°
2026-05-04 14:51 60.18456 11.10892 680 ft 20 kts 16°
2026-05-04 14:52 60.18603 11.10976 681 ft 22 kts 16°
2026-05-04 14:52 60.18728 11.11049 682 ft 18 kts 15°
2026-05-04 14:52 60.18847 11.11118 682 ft 20 kts 16°
2026-05-04 14:52 60.18971 11.11189 682 ft 16 kts 16°
2026-05-04 14:53 60.19078 11.11251 682 ft 20 kts 16°
2026-05-04 14:53 60.19210 11.11327 682 ft 20 kts 16°
2026-05-04 14:53 60.19347 11.11408 680 ft 18 kts 16°
2026-05-04 14:53 60.19449 11.11446 681 ft 13 kts 339°
2026-05-04 14:54 60.19487 11.11275 681 ft 15 kts 286°
2026-05-04 14:54 60.19518 11.11060 681 ft 16 kts 287°
2026-05-04 14:54 60.19549 11.10845 682 ft 17 kts 286°
2026-05-04 14:54 60.19582 11.10616 679 ft 17 kts 290°
2026-05-04 14:55 60.19673 11.10603 682 ft 15 kts 15°
2026-05-04 14:55 60.19784 11.10665 679 ft 18 kts 15°
2026-05-04 14:55 60.19880 11.10643 683 ft 15 kts 293°
2026-05-04 14:55 60.19909 11.10444 684 ft 16 kts 286°
2026-05-04 14:56 60.19941 11.10224 682 ft 16 kts 286°
2026-05-04 14:56 60.19972 11.10008 682 ft 16 kts 286°
2026-05-04 14:56 60.19901 11.09878 681 ft 17 kts 197°
2026-05-04 14:56 60.19791 11.09815 683 ft 16 kts 197°
2026-05-04 14:57 60.19736 11.09889 684 ft 9 kts 99°
2026-05-04 14:57 60.19723 11.09992 678 ft 6 kts 105°
2026-05-04 14:57 60.19719 11.10020 681 ft 0 kts 106°